Tracking 28126 objects as of 2-Oct-2023
HD Live streaming from Space Station
objects crossing your sky now

STARLINK-3291

Track STARLINK-3291 now!
10-day predictions
STARLINK-3291 is classified as:


NORAD ID: 50175
Int'l Code: 2021-125V
Perigee: 545.8 km
Apogee: 548.0 km
Inclination: 53.2 °
Period: 95.4 minutes
Semi major axis: 6917 km
RCS: Unknown
Launch date: December 18, 2021
Source: United States (US)
Launch site: AIR FORCE WESTERN TEST RANGE (AFWTR)
Your satellite tracking list
Your tracking list is empty




NASA's NSSDC Master Catalog

Two Line Element Set (TLE):
1 50175U 21125V   23274.77104621 -.00000953  00000-0 -41807-4 0  9998
2 50175  53.2168 284.1223 0001636  89.7815 270.3365 15.08839898102256
Source of the keplerian elements: AFSPC